Lexington Weather

Lexington, Massachusetts, USA

70°F
8/17/2022 6:30pm 
  • Lexington Conditions: Overcast
  • Temperature: 70.0°F / 21.1°C 
  • Dew Point: 59.4°FIncreased 1.3°Fsince last hour.
  • Relative Humidity: 69%Increased 3.0% since last hour.
  • Wind: Calm, 10-min avg: Calm, gust: None
  • Barometer: 29.85 inFalling 0.02  inHg/hr Falling Slowly
  • Visibility: 10 miles
  • Rain Today: 0.00 in
  •   

Regional Weather Roundup
for Boston, MA

        
000
ASUS41 KBOX 130610
RWRBOX

REGIONAL WEATHER ROUNDUP
NATIONAL WEATHER SERVICE BOSTON/NORTON MA
200 AM EDT SAT AUG 13 2022

NOTE:  "FAIR" INDICATES FEW OR NO CLOUDS BELOW 12,000 FEET WITH NO 
SIGNIFICANT WEATHER AND/OR OBSTRUCTIONS TO VISIBILITY.

MAZALL-130700-
EASTERN MASSACHUSETTS
  
CITY           SKY/WX    TMP DP  RH WIND       PRES   REMARKS
BOSTON         CLOUDY    67  50  54 N9        30.06S                  
6HR MIN TEMP:  67; 6HR MAX TEMP:  71;                                

BEVERLY        CLEAR     61  51  70 NW6       30.05S                  
LAWRENCE       PTCLDY    63  51  65 NW3       30.08S                  
BEDFORD        CLEAR     60  52  74 CALM      30.05F                  
BLUE HILL      NOT AVBL                                               
NORWOOD        CLEAR     66  50  56 N5        30.05S                  
MARSHFIELD     MOCLDY    66  57  72 N5        30.04S                  
PLYMOUTH       MOCLDY    65  54  67 N6        30.04F                  
TAUNTON          N/A    N/A N/A N/A MISG      30.04S                  
NEW BEDFORD    MOCLDY    67  54  63 VRB5      30.03S                  
$$

MAZALL-130700-
CAPE COD AND THE ISLANDS
  
CITY           SKY/WX    TMP DP  RH WIND       PRES   REMARKS
FALMOUTH       CLEAR     66  55  68 N6        30.04S                  
HYANNIS        MOCLDY    67  59  75 N8        30.00F                  
CHATHAM        MOCLDY    67  60  78 VRB3      30.02F                  
NANTUCKET      CLEAR     71  61  70 N12       30.00F                  
MARTHAS VNYRD  CLEAR     68  55  63 N8        30.02F                  
$$
 
MAZALL-130700-
CENTRAL AND WESTERN MASSACHUSETTS
  
CITY           SKY/WX    TMP DP  RH WIND       PRES   REMARKS
WORCESTER      CLEAR     61  47  59 N6        30.08S                  
6HR MIN TEMP:  61; 6HR MAX TEMP:  70;                                

FITCHBURG      CLEAR     60  48  64 N3        30.08S                  
ORANGE         CLEAR     54  50  86 CALM      30.10F                  
SPRINGFIELD    CLEAR     55  50  85 CALM      30.06S                  
WESTFIELD      CLEAR     56  50  80 CALM      30.08S                  
NORTH ADAMS    CLEAR     52  50  93 CALM      30.11R                  
PITTSFIELD     CLEAR     53  48  83 CALM      30.10R                  
$$
 
RIZALL-130700-
RHODE ISLAND
  
CITY           SKY/WX    TMP DP  RH WIND       PRES   REMARKS
PROVIDENCE     CLEAR     68  50  52 N8        30.06S                  
6HR MIN TEMP:  68; 6HR MAX TEMP:  72;                                

NEWPORT        PTCLDY    66  54  65 N7        30.04S                  
BLOCK ISLAND   CLOUDY    66  57  72 NE8       30.03F                  
SMITHFIELD     CLEAR     63  50  62 NE9       30.07S                  
WESTERLY       CLEAR     64  57  78 N5        30.04F                  
$$
 
CTZALL-130700-
CONNECTICUT
  
CITY           SKY/WX    TMP DP  RH WIND       PRES   REMARKS
BRADLEY INTL   PTCLDY    61  49  64 NW7       30.08S                  
6HR MIN TEMP:  60; 6HR MAX TEMP:  73;                                

HARTFORD       CLEAR     65  49  56 N6        30.07S                  
BRIDGEPORT     CLEAR     66  47  50 N7        30.05F                  
DANBURY        CLEAR     61  47  59 S3        30.09S                  
GROTON         CLEAR     68  52  56 N8        30.04S                  
NEW HAVEN      CLEAR     64  51  62 N6        30.06S                  
CHESTER        FAIR      63  50  63 N5        30.06F                  
MERIDEN        CLEAR     57  51  80 CALM      30.07R                  
WILLIMANTIC    CLEAR     61  50  67 CALM      30.07S                  
OXFORD         CLEAR     62  47  57 N10       30.09S                  
$$

MEZ002-015-021-024-NHZ003-005-008-011-012-014-VTZ005-008-130700-
NORTHERN NEW ENGLAND
  
CITY           SKY/WX    TMP DP  RH WIND       PRES   REMARKS
PORTLAND ME    CLEAR     61  51  70 N8        30.05F                  
6HR MIN TEMP:  60; 6HR MAX TEMP:  69;                                

BANGOR ME      PTCLDY    58  53  84 NW5       30.04F                  
CONCORD NH     CLEAR     56  51  84 CALM      30.08S                  
MANCHESTER NH  MOCLDY    62  50  64 NW7       30.06S                  
NASHUA NH      CLEAR     60  54  80 NW5       30.08R                  
PORTSMOUTH NH  MOCLDY    62  50  65 NW5       30.05S                  
JAFFREY NH     CLEAR     53  50  89 CALM      30.10F                  
KEENE NH       CLEAR     52  51  97 CALM        N/A                   
BURLINGTON VT  CLEAR     60  55  83 SE5       30.10F                  
MT. WASHINGTON FOG       37  37 100 NE15        N/A  VSB 1/8 WCI  28  
$$

NYZ052-076-130700-
EASTERN NEW YORK
  
CITY           SKY/WX    TMP DP  RH WIND       PRES   REMARKS
ALBANY         MOCLDY    61  50  67 NW5       30.11R                  
6HR MIN TEMP:  60; 6HR MAX TEMP:  71;                                

NEW YORK CITY  CLEAR     71  46  40 N12       30.05F                  
6HR MIN TEMP:  71; 6HR MAX TEMP:  81;                                

$$
 
ANZALL-130700-
MARINE OBSERVATIONS
  
STATION/POSITION TIME  TEMP    WIND        PRES    VSBY  WAVE
                       AIR SEA DIR/SP/G                  HT/PER
                 (UTC) (F)     (DEG/KT/KT) (MB)    (MI)  (FT/S)
BOSTON BUOY      NOT AVBL
BUZZARDS BAY     NOT AVBL
NANTUCKET SOUND  NOT AVBL
MASS BAY-STELLWA NOT AVBL
ISLE OF SHOALS   NOT AVBL
S OF BLOCK IS    NOT AVBL
$$

......................KEY.........................
  SKY/WX - SKY CONDITION/PRESENT WEATHER
  TMP    - TEMPERATURE IN FAHRENHEIT
  DWPT   - DEWPOINT IN FAHRENHEIT
  RH     - RELATIVE HUMIDITY IN PERCENT
  WIND   - DIRECTION AND SPEED IN MPH
  PRES   - MEAN SEA LEVEL PRESSURE IN INCHES OF HG
  WCI    - WIND CHILL INDEX
  VSB    - VISIBILITY IN MILES
  HX     - HEAT INDEX
  TC     - TEMPERATURE IN CELSIUS
  VRB    - VARIABLE WIND DIRECTION
  N/A    - NOT AVAILABLE
  
      

Other recent Regional Weather Roundups

Wed Aug 17, 6:10pm

Wed Aug 17, 5:10pm

Wed Aug 17, 4:10pm

Wed Aug 17, 3:10pm

Wed Aug 17, 2:10pm

Wed Aug 17, 1:10pm

Wed Aug 17, 12:10pm

Wed Aug 17, 11:10am

Wed Aug 17, 10:10am

Wed Aug 17, 9:10am

Wed Aug 17, 8:10am

Wed Aug 17, 7:10am

Wed Aug 17, 6:10am

Wed Aug 17, 5:10am

Wed Aug 17, 4:10am

Wed Aug 17, 3:10am

Wed Aug 17, 2:10am

Wed Aug 17, 1:10am

Wed Aug 17, 12:10am

Tue Aug 16, 11:10pm

Tue Aug 16, 10:10pm

Tue Aug 16, 9:10pm

Tue Aug 16, 8:10pm

Tue Aug 16, 7:10pm

Tue Aug 16, 6:10pm

Tue Aug 16, 5:10pm

Tue Aug 16, 4:10pm

Tue Aug 16, 3:10pm

Tue Aug 16, 2:10pm

Tue Aug 16, 1:10pm

Tue Aug 16, 12:10pm

Tue Aug 16, 11:10am

Tue Aug 16, 10:10am

Tue Aug 16, 9:10am

Tue Aug 16, 8:10am

Tue Aug 16, 7:10am

Tue Aug 16, 6:10am

Tue Aug 16, 5:10am

Tue Aug 16, 4:10am

Tue Aug 16, 3:10am

Tue Aug 16, 2:10am

Tue Aug 16, 1:10am

Tue Aug 16, 12:10am

Mon Aug 15, 11:10pm

Mon Aug 15, 10:10pm

Mon Aug 15, 9:10pm

Mon Aug 15, 8:10pm

Mon Aug 15, 7:10pm

Mon Aug 15, 6:10pm

Mon Aug 15, 5:10pm

Mon Aug 15, 4:10pm

Mon Aug 15, 3:10pm

Mon Aug 15, 2:10pm

Mon Aug 15, 1:10pm

Mon Aug 15, 12:10pm

Mon Aug 15, 11:10am

Mon Aug 15, 10:10am

Mon Aug 15, 9:10am

Mon Aug 15, 8:10am

Mon Aug 15, 7:10am

Mon Aug 15, 6:10am

Mon Aug 15, 5:10am

Mon Aug 15, 4:10am

Mon Aug 15, 3:10am

Mon Aug 15, 2:10am

Mon Aug 15, 1:10am

Mon Aug 15, 12:10am

Sun Aug 14, 11:10pm

Sun Aug 14, 10:10pm

Sun Aug 14, 9:10pm

Sun Aug 14, 8:10pm

Sun Aug 14, 7:10pm

Sun Aug 14, 6:10pm

Sun Aug 14, 5:10pm

Sun Aug 14, 4:10pm

Sun Aug 14, 3:10pm

Sun Aug 14, 2:10pm

Sun Aug 14, 1:10pm

Sun Aug 14, 12:10pm

Sun Aug 14, 11:10am

Sun Aug 14, 10:10am

Sun Aug 14, 9:10am

Sun Aug 14, 8:10am

Sun Aug 14, 7:10am

Sun Aug 14, 6:10am

Sun Aug 14, 5:10am

Sun Aug 14, 4:10am

Sun Aug 14, 3:10am

Sun Aug 14, 2:10am

Sun Aug 14, 1:10am

Sun Aug 14, 12:10am

Sat Aug 13, 11:10pm

Sat Aug 13, 10:10pm

Sat Aug 13, 9:10pm

Sat Aug 13, 8:10pm

Sat Aug 13, 7:10pm

Sat Aug 13, 6:10pm

Sat Aug 13, 5:10pm

Sat Aug 13, 4:10pm

Sat Aug 13, 3:10pm

Sat Aug 13, 2:10pm

Sat Aug 13, 1:10pm

Sat Aug 13, 12:10pm

Sat Aug 13, 11:10am

Sat Aug 13, 10:10am

Sat Aug 13, 9:10am

Sat Aug 13, 8:10am

Sat Aug 13, 7:10am

Sat Aug 13, 6:10am

Sat Aug 13, 5:10am

Sat Aug 13, 4:10am

Sat Aug 13, 3:10am

Sat Aug 13, 1:10am

Sat Aug 13, 12:10am

Fri Aug 12, 11:10pm

Fri Aug 12, 10:10pm

Fri Aug 12, 9:10pm

Fri Aug 12, 8:10pm

Fri Aug 12, 7:10pm

Fri Aug 12, 6:10pm

Fri Aug 12, 5:10pm

Fri Aug 12, 4:10pm

Fri Aug 12, 3:10pm

Fri Aug 12, 2:10pm

Fri Aug 12, 1:10pm

Fri Aug 12, 12:10pm

Fri Aug 12, 11:10am

Fri Aug 12, 10:10am

Fri Aug 12, 9:10am

Fri Aug 12, 8:10am

Fri Aug 12, 7:10am

Fri Aug 12, 6:10am

Fri Aug 12, 5:10am

Fri Aug 12, 4:10am

Fri Aug 12, 3:10am

Fri Aug 12, 2:10am

Fri Aug 12, 1:10am

Fri Aug 12, 12:10am

Thu Aug 11, 11:10pm

Thu Aug 11, 10:10pm

Thu Aug 11, 9:10pm

Thu Aug 11, 8:10pm

Thu Aug 11, 7:10pm

Thu Aug 11, 6:10pm

Thu Aug 11, 5:10pm

Thu Aug 11, 4:10pm

Thu Aug 11, 3:10pm

Thu Aug 11, 2:10pm

Thu Aug 11, 1:10pm

Thu Aug 11, 12:10pm

Thu Aug 11, 11:10am

Thu Aug 11, 10:10am

Thu Aug 11, 9:10am

Thu Aug 11, 8:10am

Thu Aug 11, 7:10am

Thu Aug 11, 6:10am

Thu Aug 11, 5:10am

Thu Aug 11, 4:10am

Thu Aug 11, 3:10am

Thu Aug 11, 2:10am

Thu Aug 11, 1:10am

Thu Aug 11, 12:10am

Wed Aug 10, 11:10pm

Wed Aug 10, 10:10pm

Wed Aug 10, 9:10pm

Wed Aug 10, 8:10pm

Wed Aug 10, 7:10pm

Meta data:

ID: 65d5a2a2-6149-43c5-a496-7dc44c9b8ad2
Link: https://api.weather.gov/products/65d5a2a2-6149-43c5-a496-7dc44c9b8ad2